DateTimeUTC,F1_A11,F1_S11,BsB_S11,BsG_S11,BsR_S11,BbsB_S11,BbsG_S11,BbsR_S11,BaB_A11,BaG_A11,BaR_A11,Tu_S11,T_S11,Uu_S11,U_S11,P_S11,T1_A11
2021-07-13T23:00:00Z,00000200,20000000,,,,,,,0000.18,-000.13,0000.15,20.1,26.7,10.0,06.7,0666.1,31.2
2021-07-13T23:01:00Z,00000200,20000000,,,,,,,-000.40,0000.07,-000.24,20.1,26.7,10.0,06.7,0666.1,31.2
2021-07-13T23:02:00Z,00000200,20000000,,,,,,,0000.18,0000.09,0000.12,20.1,26.7,10.0,06.7,0666.1,31.2
2021-07-13T23:03:00Z,00000200,60000000,,,,,,,-000.04,0000.39,0000.33,20.0,26.7,10.0,06.7,0666.1,31.2
2021-07-13T23:04:00Z,00000200,40000000,0000.99,0000.87,-000.12,0001.30,-000.03,-000.42,0000.49,-000.19,-000.18,20.2,26.5,09.8,06.7,0667.0,31.2
2021-07-13T23:05:00Z,00000200,00000000,0001.22,0001.12,0000.19,0000.74,0000.27,-000.07,-000.09,0000.31,0000.35,20.2,26.5,09.9,06.8,0667.1,31.2
2021-07-13T23:06:00Z,00000200,00000000,0000.75,0001.05,0000.28,0000.72,0000.35,-000.09,0000.35,0000.10,0000.10,20.2,26.5,09.9,06.8,0667.1,31.2
2021-07-13T23:07:00Z,00000200,00000000,0001.27,0000.96,-000.08,0000.85,0000.14,-000.26,0000.14,0000.17,0000.24,20.2,26.5,09.9,06.7,0667.0,31.2
2021-07-13T23:08:00Z,00000200,00000000,0001.25,0000.58,0000.26,0000.20,0000.07,-000.33,0000.11,0000.30,-000.23,20.2,26.5,09.9,06.7,0667.0,31.2
2021-07-13T23:09:00Z,00000200,00000000,0001.02,0000.74,0000.31,0001.07,0000.17,-000.07,0000.19,-000.03,0000.46,20.2,26.4,09.9,06.8,0667.0,31.2
2021-07-13T23:10:00Z,00000200,00000000,0001.42,0001.01,0000.31,0000.32,0000.08,-000.00,0000.02,0000.47,0000.01,20.2,26.4,09.8,06.7,0667.0,31.2
2021-07-13T23:11:00Z,00000200,00000000,0000.60,0000.93,-000.02,0000.34,0000.28,-000.15,0000.35,0000.08,-000.26,20.2,26.4,09.9,06.8,0667.0,31.2
2021-07-13T23:12:00Z,00000200,00000000,0001.04,0000.74,0000.42,0000.98,0000.24,0000.22,0000.34,0000.15,0000.38,20.2,26.4,09.9,06.8,0667.0,31.2
2021-07-13T23:13:00Z,00000200,00000000,0000.65,0000.97,0000.55,0000.85,-000.03,0000.09,0000.28,0000.34,0000.20,20.2,26.4,09.9,06.8,0667.0,31.2
2021-07-13T23:14:00Z,00000200,00000000,0001.37,0000.71,0000.25,0000.72,0000.23,0000.01,-000.13,0000.02,0000.07,20.2,26.4,09.9,06.8,0667.0,31.2
2021-07-13T23:15:00Z,00000200,00000000,0000.65,0000.73,0000.08,0000.53,0000.14,-000.07,0000.63,0000.29,0000.16,20.2,26.4,09.9,06.8,0667.0,31.2
2021-07-13T23:16:00Z,00000200,00000000,0001.29,0000.54,0000.36,0000.69,0000.29,0000.17,-000.09,0000.21,0000.24,20.2,26.4,10.0,06.9,0667.0,31.2
2021-07-13T23:17:00Z,00000200,00000000,0000.86,0000.85,0000.29,0000.31,0000.18,-000.02,0000.11,0000.00,0000.46,20.2,26.4,10.0,06.9,0667.0,31.2
2021-07-13T23:18:00Z,00000200,00000000,0001.54,0000.89,0000.27,0000.91,0000.00,-000.03,0000.29,0000.25,-000.10,20.2,26.4,10.0,06.9,0667.0,31.2
2021-07-13T23:19:00Z,00000200,00000000,0001.19,0000.48,0000.11,0001.13,0000.43,0000.27,0000.28,0000.27,-000.10,20.2,26.4,09.9,06.8,0667.0,31.2
2021-07-13T23:20:00Z,00000200,00000000,0001.23,0000.70,0000.40,0000.47,0000.10,0000.17,0000.13,-000.04,0000.37,20.2,26.4,10.0,06.9,0667.0,31.2
2021-07-13T23:21:00Z,00000200,00000000,0001.31,0001.01,-000.00,0000.82,0000.13,-000.27,-000.01,0000.09,0000.01,20.1,26.4,09.9,06.8,0667.1,31.2
2021-07-13T23:22:00Z,00000200,00000000,0000.87,0000.77,0000.33,0000.78,0000.19,-000.33,-000.37,-000.20,-000.33,20.2,26.3,09.5,06.5,0667.0,31.2
2021-07-13T23:23:00Z,00000200,00000000,0000.77,0000.63,0000.31,0000.30,0000.34,0000.16,0000.15,0000.19,0000.19,20.1,26.3,09.4,06.5,0667.0,31.2
2021-07-13T23:24:00Z,00000200,00000000,0000.82,0000.92,0000.44,0000.68,0000.16,-000.07,0000.69,0000.45,0000.50,20.1,26.3,09.7,06.7,0667.0,31.2
2021-07-13T23:25:00Z,00000200,00000000,0001.13,0001.05,0000.27,0000.87,0000.06,0000.02,0000.35,0000.61,0000.16,20.1,26.3,09.8,06.7,0667.1,31.2
2021-07-13T23:26:00Z,00000200,00000000,0000.99,0000.88,0000.31,0000.03,0000.16,-000.30,-000.18,-000.38,-000.00,20.1,26.3,09.8,06.7,0667.1,31.2
2021-07-13T23:27:00Z,00000200,00000000,0001.37,0000.83,0000.37,0000.47,0000.18,0000.33,0000.25,0000.39,-000.06,20.1,26.3,09.7,06.7,0667.1,31.2
2021-07-13T23:28:00Z,00000200,00000000,0001.33,0000.75,0000.54,0000.37,0000.15,0000.15,0000.27,-000.32,0000.44,20.1,26.3,09.7,06.7,0667.1,31.2
2021-07-13T23:29:00Z,00000200,00000000,0001.22,0000.75,0000.38,0000.38,0000.27,0000.10,0000.08,0000.38,-000.25,20.1,26.3,09.6,06.6,0667.1,31.2
2021-07-13T23:30:00Z,00000200,00000000,0000.87,0001.04,0000.44,0000.37,0000.06,-000.07,-000.04,0000.02,0000.22,20.1,26.3,09.6,06.6,0667.1,31.2
2021-07-13T23:31:00Z,00000200,00000000,0001.02,0001.11,-000.12,0000.96,0000.33,-000.22,0000.39,0000.14,0000.11,20.1,26.3,09.7,06.6,0667.0,31.2
2021-07-13T23:32:00Z,00000200,00000000,0001.18,0000.81,0000.01,0000.66,0000.20,-000.08,0000.12,0000.35,-000.00,20.1,26.3,09.7,06.6,0667.0,31.2
2021-07-13T23:33:00Z,00000200,00000000,0001.91,0000.71,0000.24,0000.52,0000.34,0000.06,0000.13,-000.14,0000.19,20.1,26.3,09.4,06.5,0667.0,31.2
2021-07-13T23:34:00Z,00000200,00000000,0001.36,0000.78,0000.37,0000.78,0000.24,0000.18,0000.14,0000.35,0000.50,20.1,26.3,09.4,06.5,0667.0,31.2
2021-07-13T23:35:00Z,00000200,00000000,0001.23,0001.11,-000.03,0000.71,0000.17,0000.18,0000.86,0000.71,0000.16,20.1,26.3,10.1,06.9,0666.9,31.2
2021-07-13T23:36:00Z,00000200,00000000,0001.18,0000.94,0000.39,0000.95,0000.21,0000.07,0000.26,0000.31,0000.33,20.1,26.3,10.2,07.0,0666.9,31.2
2021-07-13T23:37:00Z,00000200,00000000,0001.95,0000.97,0000.31,0000.24,0000.32,-000.01,-000.04,-000.27,0000.24,20.1,26.3,10.1,07.0,0666.9,31.2
2021-07-13T23:38:00Z,00000200,00000000,0000.77,0000.67,0000.34,0000.71,0000.11,0000.04,0000.55,0000.45,-000.09,20.0,26.3,10.2,07.0,0666.9,31.2
2021-07-13T23:39:00Z,00000200,00000000,0000.82,0000.71,0000.40,0000.40,0000.17,0000.14,0000.13,0000.27,0000.25,20.0,26.3,10.4,07.1,0666.9,31.2
2021-07-13T23:40:00Z,00000200,00000000,0001.31,0000.96,0000.39,0000.88,0000.30,-000.02,0000.18,0000.21,0000.17,20.0,26.3,10.3,07.1,0666.9,31.2
2021-07-13T23:41:00Z,00000200,00000000,0000.83,0000.97,0000.23,0000.93,0000.50,0000.10,-000.40,0000.01,0000.18,20.0,26.3,10.2,07.0,0666.9,31.2
2021-07-13T23:42:00Z,00000200,00000000,0000.95,0000.49,0000.08,0000.62,0000.09,-000.41,0000.78,0000.28,-000.00,20.0,26.3,10.2,07.0,0666.9,31.2
2021-07-13T23:43:00Z,00000200,00000000,0001.43,0001.03,0000.47,0000.51,0000.28,0000.14,0000.12,0000.28,0000.49,20.0,26.2,10.4,07.1,0666.9,31.2
2021-07-13T23:44:00Z,00000200,00000000,0001.34,0001.21,0000.53,0000.34,0000.31,0000.49,-000.02,0000.07,-000.04,20.0,26.2,10.4,07.1,0666.9,31.2
2021-07-13T23:45:00Z,00000200,00000000,0001.15,0001.12,0000.64,0000.01,0000.25,-000.03,0000.38,0000.08,0000.13,20.0,26.2,10.4,07.1,0666.9,31.2
2021-07-13T23:46:00Z,00000200,00000000,0001.12,0000.78,0000.20,0001.10,0000.34,0000.05,0000.03,0000.10,-000.03,20.0,26.2,10.3,07.0,0666.9,31.2
2021-07-13T23:47:00Z,00000200,00000000,0001.20,0000.94,0000.30,0000.62,0000.15,0000.14,-000.12,-000.17,-000.30,20.0,26.2,10.2,07.0,0666.9,31.2
2021-07-13T23:48:00Z,00000200,00000000,0001.04,0001.04,0000.32,0000.74,0000.14,-000.11,-000.20,0000.19,0000.16,20.0,26.2,09.8,06.7,0666.9,31.2
2021-07-13T23:49:00Z,00000200,00000000,0001.28,0000.75,0000.53,0000.13,0000.37,-000.07,0000.66,0000.12,0000.31,20.0,26.2,09.9,06.8,0666.9,31.2
2021-07-13T23:50:00Z,00000200,00000000,0000.85,0001.02,0000.43,0000.61,0000.30,-000.36,0000.03,-000.05,0000.38,20.0,26.2,10.0,06.9,0666.9,31.2
2021-07-13T23:51:00Z,00000200,00000000,0000.77,0001.22,0000.49,0001.17,0000.40,0000.21,0000.38,0000.53,0000.05,20.0,26.2,10.1,06.9,0666.9,31.2
2021-07-13T23:52:00Z,00000200,00000000,0001.65,0001.12,0000.23,0000.84,0000.41,-000.15,0000.40,0000.58,0000.39,20.0,26.2,10.3,07.1,0666.9,31.2
2021-07-13T23:53:00Z,00000200,00000000,0001.92,0001.13,0000.34,0000.32,0000.29,0000.19,0000.22,0000.25,-000.08,20.0,26.2,10.3,07.1,0666.9,31.1
2021-07-13T23:54:00Z,00000200,00000000,0000.67,0001.06,0000.45,0000.96,0000.18,0000.01,-000.03,-000.27,-000.01,19.9,26.2,10.2,07.0,0666.9,31.2
2021-07-13T23:55:00Z,00000200,00000000,0001.48,0000.83,0000.55,0000.72,0000.38,0000.55,-000.13,-000.17,0000.11,19.9,26.2,10.1,06.9,0666.9,31.2
2021-07-13T23:56:00Z,00000200,00000000,0001.09,0000.78,0000.03,0000.32,0000.32,0000.16,0000.44,0000.60,0000.61,19.9,26.2,10.0,06.8,0666.9,31.2
2021-07-13T23:57:00Z,00000200,40000000,,,,,,,0000.05,0000.15,-000.26,20.0,26.2,09.9,06.8,0666.9,31.2
2021-07-13T23:58:00Z,00000200,60000000,,,,,,,-000.11,-000.02,0000.04,19.7,26.3,10.4,07.0,0665.9,31.2
2021-07-13T23:59:00Z,00000200,20000000,,,,,,,-000.10,0000.02,-000.06,19.7,26.4,10.3,06.9,0665.8,31.2
